EW2167 Weather Reports


time (UTC)temp
C
wind
direction
speed
KPH
gust
KPH
rain 1hr
cm
rain 24hr
cm
rain mn
cm
humidity
%
barometer
mb
20260509023033 13 9 6.4 16.1 0.00 0.00 0.00 81 1011.0
20260509021532 14 14 6.4 24.1 0.00 0.00 0.00 77 1010.9
20260509020031 16 320 1.6 14.5 0.00 0.00 0.00 63 1010.6
20260509014533 16 238 4.8 20.9 0.00 0.00 0.00 61 1010.0
20260509013040 16 219 4.8 9.7 0.00 0.00 0.00 66 1009.8
20260509011532 15 211 3.2 8.0 0.00 0.00 0.00 73 1009.7
20260509010032 16 233 3.2 24.1 0.00 0.00 0.00 62 1009.8
20260509004541 16 211 3.2 12.9 0.00 0.00 0.00 62 1009.8
20260509003032 17 227 4.8 11.3 0.00 0.00 0.00 57 1009.6
20260509001531 17 232 3.2 11.3 0.00 0.00 0.00 55 1009.6
20260509000030 18 238 3.2 14.5 0.00 0.00 0.00 53 1009.8
20260508234534 18 214 6.4 12.9 0.00 0.00 0.00 53 1009.8
20260508233032 18 234 6.4 11.3 0.00 0.00 0.00 53 1009.5
20260508231532 18 216 4.8 9.7 0.00 0.00 0.00 54 1009.6
20260508230030 18 217 3.2 8.0 0.00 0.00 0.00 52 1009.7
20260508224531 18 215 4.8 11.3 0.00 0.00 0.00 51 1009.5
20260508223035 18 225 4.8 16.1 0.00 0.00 0.00 51 1009.5
20260508221536 19 218 6.4 22.5 0.00 0.00 0.00 48 1009.5
20260508220036 19 240 6.4 20.9 0.00 0.00 0.00 50 1009.4
20260508214530 20 234 9.7 25.7 0.00 0.00 0.00 46 1009.2
20260508213043 20 217 8.0 24.1 0.00 0.00 0.00 48 1009.3
20260508211534 20 243 9.7 20.9 0.00 0.00 0.00 47 1009.4
20260508210035 21 213 3.2 22.5 0.00 0.00 0.00 47 1009.6
20260508204533 21 162 9.7 25.7 0.00 0.00 0.00 44 1009.9
20260508203035 20 253 8.0 30.6 0.00 0.00 0.00 47 1010.1
20260508201536 20 241 9.7 22.5 0.00 0.00 0.00 47 1010.5
20260508200039 20 215 9.7 27.4 0.00 0.00 0.00 46 1010.7
20260508194534 20 223 4.8 22.5 0.00 0.00 0.00 46 1011.0
20260508193030 19 235 12.9 27.4 0.00 0.00 0.00 47 1011.2
20260508191534 19 227 8.0 32.2 0.00 0.00 0.00 45 1011.3
20260508190035 20 249 9.7 29.0 0.00 0.00 0.00 49 1011.4
20260508184534 21 230 6.4 33.8 0.00 0.00 0.00 45 1011.5
20260508183036 21 238 6.4 24.1 0.00 0.00 0.00 49 1011.7
20260508181552 19 254 9.7 25.7 0.00 0.00 0.00 48 1012.1
20260508180030 19 236 9.7 27.4 0.00 0.00 0.00 48 1012.5
20260508174531 20 251 17.7 32.2 0.00 0.00 0.00 45 1012.4
20260508173032 19 228 17.7 27.4 0.00 0.00 0.00 46 1012.7
20260508171531 20 234 9.7 25.7 0.00 0.00 0.00 50 1013.0
20260508170031 20 198 8.0 20.9 0.00 0.00 0.00 53 1013.2
20260508164538 18 210 9.7 30.6 0.00 0.00 0.00 50 1013.6
20260508163030 18 244 14.5 30.6 0.00 0.00 0.00 51 1013.7
20260508161535 19 250 9.7 30.6 0.00 0.00 0.00 51 1014.0
20260508160038 18 203 12.9 29.0 0.00 0.00 0.00 52 1014.0
20260508154537 18 269 12.9 33.8 0.00 0.00 0.00 53 1014.1
20260508153033 17 250 14.5 29.0 0.00 0.00 0.00 52 1014.2
20260508151530 17 240 9.7 25.7 0.00 0.00 0.00 55 1014.5
20260508150032 17 227 12.9 27.4 0.00 0.00 0.00 52 1014.7
20260508144531 17 244 11.3 29.0 0.00 0.00 0.00 53 1014.7
20260508143036 16 196 14.5 32.2 0.00 0.00 0.00 55 1014.8
20260508141545 16 246 8.0 20.9 0.00 0.00 0.00 60 1015.0
20260508140030 15 242 12.9 24.1 0.00 0.00 0.00 57 1015.0
20260508134534 14 242 9.7 20.9 0.00 0.00 0.00 58 1015.2
20260508133032 13 234 9.7 27.4 0.00 0.00 0.00 62 1015.2
20260508131530 13 228 11.3 22.5 0.00 0.00 0.00 62 1015.3
20260508130031 12 218 6.4 19.3 0.00 0.00 0.00 66 1015.2
20260508124532 11 218 4.8 14.5 0.00 0.00 0.00 69 1015.1
20260508123031 10 211 6.4 16.1 0.00 0.00 0.00 72 1015.0
20260508121532 9 217 8.0 16.1 0.00 0.00 0.00 72 1014.9
20260508120037 8 211 6.4 12.9 0.00 0.00 0.00 74 1015.0
20260508114529 7 219 6.4 11.3 0.00 0.00 0.00 77 1014.8
20260508113030 6 212 4.8 9.7 0.00 0.00 0.00 81 1014.7
20260508111549 5 205 4.8 9.7 0.00 0.00 0.00 82 1014.5
20260508110032 5 209 4.8 8.0 0.00 0.00 0.00 84 1014.5
20260508104530 5 210 4.8 8.0 0.00 0.00 0.00 84 1014.4
20260508103033 6 213 4.8 8.0 0.00 0.00 0.00 82 1014.4
20260508101538 6 214 3.2 8.0 0.00 0.00 0.00 78 1014.5
20260508100030 6 216 4.8 6.4 0.00 0.00 0.00 80 1014.3
20260508094529 7 226 3.2 8.0 0.00 0.00 0.00 80 1014.4
20260508093032 7 227 3.2 8.0 0.00 0.00 0.00 80 1014.4
20260508091531 7 230 3.2 6.4 0.00 0.00 0.00 79 1014.2
20260508090035 6 230 3.2 8.0 0.00 0.00 0.00 80 1014.4
20260508084532 6 227 4.8 8.0 0.00 0.00 0.00 81 1014.3
20260508083035 6 213 4.8 9.7 0.00 0.00 0.00 80 1014.3
20260508081530 6 232 4.8 9.7 0.00 0.00 0.00 80 1014.2
20260508080035 6 234 4.8 9.7 0.00 0.00 0.00 80 1014.2
20260508074528 5 228 4.8 9.7 0.00 0.00 0.00 82 1014.3
20260508073032 5 232 3.2 6.4 0.00 0.00 0.00 82 1014.3
20260508071530 5 234 4.8 8.0 0.00 0.00 0.00 82 1014.3
20260508070029 6 217 3.2 8.0 0.00 0.00 0.00 79 1014.5
20260508064538 5 211 4.8 8.0 0.00 0.00 0.00 80 1014.6
20260508063030 6 230 3.2 6.4 0.00 0.00 0.00 81 1014.9
20260508061534 6 236 4.8 8.0 0.00 0.00 0.00 78 1015.1
20260508060029 6 236 4.8 8.0 0.00 0.00 0.00 76 1015.1
20260508054535 6 232 3.2 8.0 0.00 0.00 0.00 77 1015.2
20260508053035 6 236 4.8 8.0 0.00 0.00 0.00 75 1015.1
20260508051533 7 236 3.2 6.4 0.00 0.00 0.00 76 1015.1
20260508050032 7 239 3.2 9.7 0.00 0.00 0.00 69 1015.0
20260508044530 7 233 4.8 12.9 0.00 0.00 0.00 73 1015.1
20260508043032 7 229 4.8 11.3 0.00 0.00 0.00 73 1015.1
20260508041530 7 239 3.2 11.3 0.00 0.00 0.00 72 1015.2
20260508040037 7 232 3.2 8.0 0.00 0.00 0.00 75 1015.2
20260508034531 7 219 4.8 11.3 0.00 0.00 0.00 74 1015.1
20260508033033 6 221 3.2 8.0 0.00 0.00 0.00 79 1015.2
20260508031533 6 0 0.0 0.0 0.00 0.00 0.00 80 1015.3
20260508030033 6 0 0.0 0.0 0.00 0.00 0.00 82 1015.1
20260508024542 7 0 0.0 0.0 0.00 0.00 0.00 81 1014.9